N0312CM KJZI-KFFA

Flight info

Callsign N0312CM
Flight time 1h 21m
Altitude 19000
Route CRE EWN
Aircraft B58T/L-SDFGRY/C

Departure

Time 2026-04-28 15:04
Airport Charleston Executive Airport (KJZI)

Arrival

Time 2026-04-28 16:26
Airport First Flight Airport (KFFA)
Time Latitude Longitude Altitude Speed Heading
2026-04-28 14:59 32.69901 -80.00748 23 ft 0 kts
2026-04-28 15:00 32.69901 -80.00747 23 ft 0 kts
2026-04-28 15:02 32.69902 -80.00699 24 ft 13 kts 69°
2026-04-28 15:02 32.69999 -80.00681 25 ft 19 kts 359°
2026-04-28 15:03 32.70134 -80.00684 24 ft 23 kts
2026-04-28 15:03 32.70300 -80.00687 25 ft 18 kts 359°
2026-04-28 15:03 32.70427 -80.00691 21 ft 17 kts 357°
2026-04-28 15:03 32.70495 -80.00549 25 ft 45 kts 87°
2026-04-28 15:04 32.70499 -79.99874 108 ft 104 kts 92°
2026-04-28 15:04 32.70409 -79.99000 560 ft 112 kts 95°
2026-04-28 15:04 32.70305 -79.98110 1038 ft 112 kts 94°
2026-04-28 15:04 32.70223 -79.97169 1526 ft 121 kts 92°
2026-04-28 15:05 32.70318 -79.96149 1917 ft 127 kts 71°
2026-04-28 15:05 32.70560 -79.95111 2400 ft 134 kts 73°
2026-04-28 15:05 32.70815 -79.94028 2899 ft 139 kts 73°
2026-04-28 15:05 32.71091 -79.92904 3397 ft 145 kts 73°
2026-04-28 15:06 32.71381 -79.91756 3902 ft 147 kts 72°
2026-04-28 15:06 32.71689 -79.90579 4410 ft 151 kts 62°
2026-04-28 15:06 32.72244 -79.89532 4917 ft 151 kts 52°
2026-04-28 15:06 32.72918 -79.88609 5406 ft 147 kts 31°
2026-04-28 15:07 32.73741 -79.87889 5903 ft 147 kts 32°
2026-04-28 15:07 32.74535 -79.87113 6411 ft 148 kts 34°
2026-04-28 15:07 32.75311 -79.86311 6894 ft 147 kts 35°
2026-04-28 15:07 32.76080 -79.85504 7365 ft 147 kts 35°
2026-04-28 15:08 32.76845 -79.84698 7843 ft 148 kts 36°
2026-04-28 15:08 32.77613 -79.83887 8320 ft 148 kts 35°
2026-04-28 15:08 32.78389 -79.83069 8814 ft 149 kts 36°
2026-04-28 15:08 32.79156 -79.82257 9302 ft 149 kts 36°
2026-04-28 15:09 32.79934 -79.81436 9809 ft 150 kts 36°
2026-04-28 15:09 32.80712 -79.80613 10299 ft 150 kts 36°
2026-04-28 15:09 32.81495 -79.79785 10767 ft 150 kts 36°
2026-04-28 15:09 32.82014 -79.79237 11067 ft 150 kts 36°
2026-04-28 15:10 32.83061 -79.78129 11702 ft 150 kts 35°
2026-04-28 15:10 32.83826 -79.77319 12171 ft 144 kts 35°
2026-04-28 15:10 32.84561 -79.76543 12640 ft 139 kts 34°
2026-04-28 15:10 32.85300 -79.75759 12981 ft 145 kts 35°
2026-04-28 15:11 32.86063 -79.74951 13338 ft 148 kts 35°
2026-04-28 15:11 32.86841 -79.74127 13698 ft 151 kts 35°
2026-04-28 15:11 32.87625 -79.73296 14065 ft 154 kts 35°
2026-04-28 15:11 32.88430 -79.72443 14397 ft 156 kts 35°
2026-04-28 15:12 32.89247 -79.71577 14726 ft 158 kts 35°
2026-04-28 15:12 32.90069 -79.70704 15061 ft 160 kts 35°
2026-04-28 15:12 32.90903 -79.69820 15395 ft 161 kts 35°
2026-04-28 15:12 32.91743 -79.68930 15734 ft 162 kts 35°
2026-04-28 15:13 32.92590 -79.68033 16078 ft 164 kts 34°
2026-04-28 15:13 32.93454 -79.67122 16358 ft 169 kts 34°
2026-04-28 15:13 32.94349 -79.66170 16619 ft 175 kts 35°
2026-04-28 15:13 32.95268 -79.65193 16882 ft 179 kts 35°
2026-04-28 15:14 32.96199 -79.64203 17143 ft 183 kts 35°
2026-04-28 15:14 32.97157 -79.63185 17398 ft 186 kts 35°
2026-04-28 15:14 32.98128 -79.62153 17669 ft 188 kts 35°
2026-04-28 15:14 32.99114 -79.61104 17938 ft 191 kts 35°
2026-04-28 15:15 33.00111 -79.60044 18204 ft 193 kts 35°
2026-04-28 15:15 33.01118 -79.58969 18469 ft 195 kts 35°
2026-04-28 15:15 33.02131 -79.57893 18711 ft 196 kts 35°
2026-04-28 15:15 33.03150 -79.56809 18944 ft 197 kts 35°
2026-04-28 15:16 33.04196 -79.55699 19001 ft 208 kts 35°
2026-04-28 15:16 33.05302 -79.54522 19009 ft 218 kts 36°
2026-04-28 15:16 33.06450 -79.53296 19009 ft 225 kts 36°
2026-04-28 15:16 33.07635 -79.52031 19007 ft 231 kts 36°
2026-04-28 15:17 33.08841 -79.50743 19017 ft 234 kts 36°
2026-04-28 15:17 33.10064 -79.49438 19018 ft 237 kts 36°
2026-04-28 15:17 33.11299 -79.48119 19022 ft 239 kts 36°
2026-04-28 15:17 33.12543 -79.46791 19021 ft 241 kts 36°
2026-04-28 15:18 33.13793 -79.45457 19027 ft 242 kts 36°
2026-04-28 15:18 33.15047 -79.44116 19030 ft 242 kts 36°
2026-04-28 15:18 33.16305 -79.42771 19032 ft 243 kts 36°
2026-04-28 15:18 33.17562 -79.41426 19028 ft 243 kts 36°
2026-04-28 15:19 33.18825 -79.40072 19037 ft 244 kts 37°
2026-04-28 15:19 33.20088 -79.38719 19039 ft 245 kts 36°
2026-04-28 15:19 33.21360 -79.37358 19041 ft 245 kts 36°
2026-04-28 15:19 33.22628 -79.35998 19042 ft 245 kts 37°
2026-04-28 15:20 33.23884 -79.34652 19038 ft 245 kts 36°
2026-04-28 15:20 33.25167 -79.33278 19037 ft 245 kts 36°
2026-04-28 15:20 33.26418 -79.31936 19043 ft 245 kts 36°
2026-04-28 15:20 33.27702 -79.30558 19042 ft 245 kts 36°
2026-04-28 15:21 33.28955 -79.29213 19039 ft 245 kts 37°
2026-04-28 15:21 33.30223 -79.27852 19042 ft 245 kts 36°
2026-04-28 15:21 33.31493 -79.26489 19043 ft 245 kts 36°
2026-04-28 15:21 33.32764 -79.25123 19042 ft 245 kts 37°
2026-04-28 15:22 33.34030 -79.23760 19042 ft 245 kts 37°
2026-04-28 15:22 33.35296 -79.22399 19042 ft 245 kts 36°
2026-04-28 15:22 33.36563 -79.21036 19047 ft 245 kts 36°
2026-04-28 15:22 33.37838 -79.19667 19049 ft 246 kts 36°
2026-04-28 15:23 33.39114 -79.18297 19043 ft 246 kts 37°
2026-04-28 15:23 33.40387 -79.16924 19041 ft 247 kts 37°
2026-04-28 15:23 33.41664 -79.15547 19043 ft 247 kts 37°
2026-04-28 15:23 33.42942 -79.14168 19034 ft 247 kts 37°
2026-04-28 15:24 33.44221 -79.12789 19028 ft 248 kts 37°
2026-04-28 15:24 33.45504 -79.11407 19029 ft 248 kts 37°
2026-04-28 15:24 33.46788 -79.10020 19028 ft 248 kts 37°
2026-04-28 15:24 33.48071 -79.08635 19030 ft 249 kts 37°
2026-04-28 15:25 33.49357 -79.07241 19037 ft 250 kts 37°
2026-04-28 15:25 33.50651 -79.05839 19036 ft 251 kts 37°
2026-04-28 15:25 33.51954 -79.04439 19037 ft 252 kts 37°
2026-04-28 15:25 33.53255 -79.03032 19038 ft 252 kts 37°
2026-04-28 15:26 33.54557 -79.01622 19039 ft 252 kts 37°
2026-04-28 15:26 33.55853 -79.00217 19042 ft 250 kts 37°
2026-04-28 15:26 33.57137 -78.98825 19045 ft 249 kts 37°
2026-04-28 15:26 33.58427 -78.97428 19045 ft 249 kts 37°
2026-04-28 15:27 33.59692 -78.96057 19044 ft 249 kts 37°
2026-04-28 15:27 33.60975 -78.94666 19048 ft 249 kts 37°
2026-04-28 15:27 33.62256 -78.93277 19045 ft 248 kts 37°
2026-04-28 15:27 33.63537 -78.91886 19048 ft 248 kts 37°
2026-04-28 15:28 33.64818 -78.90495 19049 ft 248 kts 37°
2026-04-28 15:28 33.66101 -78.89102 19048 ft 248 kts 37°
2026-04-28 15:28 33.67381 -78.87711 19051 ft 248 kts 37°
2026-04-28 15:28 33.68659 -78.86322 19049 ft 248 kts 37°
2026-04-28 15:29 33.69939 -78.84929 19052 ft 248 kts 37°
2026-04-28 15:29 33.71221 -78.83534 19051 ft 248 kts 37°
2026-04-28 15:29 33.72501 -78.82141 19055 ft 248 kts 37°
2026-04-28 15:29 33.73788 -78.80740 19030 ft 249 kts 37°
2026-04-28 15:30 33.75057 -78.79358 19034 ft 250 kts 37°
2026-04-28 15:30 33.76345 -78.77953 19036 ft 250 kts 37°
2026-04-28 15:30 33.77650 -78.76529 19029 ft 251 kts 37°
2026-04-28 15:30 33.78925 -78.75139 19030 ft 250 kts 37°
2026-04-28 15:31 33.80214 -78.73733 19030 ft 250 kts 37°
2026-04-28 15:31 33.81498 -78.72315 19031 ft 251 kts 40°
2026-04-28 15:31 33.82685 -78.70764 19032 ft 253 kts 43°
2026-04-28 15:31 33.83875 -78.69201 19034 ft 252 kts 43°
2026-04-28 15:32 33.85064 -78.67656 19032 ft 252 kts 42°
2026-04-28 15:32 33.85858 -78.66625 19033 ft 252 kts 43°
2026-04-28 15:32 33.87450 -78.64548 19030 ft 253 kts 43°
2026-04-28 15:32 33.88645 -78.62989 19031 ft 253 kts 43°
2026-04-28 15:33 33.89836 -78.61435 19031 ft 253 kts 43°
2026-04-28 15:33 33.91031 -78.59873 19027 ft 253 kts 43°
2026-04-28 15:33 33.92224 -78.58312 19027 ft 253 kts 43°
2026-04-28 15:33 33.93413 -78.56759 19028 ft 253 kts 43°
2026-04-28 15:34 33.94604 -78.55201 19022 ft 253 kts 43°
2026-04-28 15:34 33.95793 -78.53646 19024 ft 254 kts 43°
2026-04-28 15:34 33.96993 -78.52074 19021 ft 254 kts 43°
2026-04-28 15:34 33.98175 -78.50525 19021 ft 254 kts 43°
2026-04-28 15:35 33.99366 -78.48963 19016 ft 254 kts 43°
2026-04-28 15:35 34.01757 -78.45828 19019 ft 253 kts 43°
2026-04-28 15:35 34.02952 -78.44261 19014 ft 253 kts 43°
2026-04-28 15:36 34.03741 -78.43225 19013 ft 253 kts 43°
2026-04-28 15:36 34.04928 -78.41665 19014 ft 253 kts 43°
2026-04-28 15:36 34.06501 -78.39598 19014 ft 253 kts 43°
2026-04-28 15:36 34.07307 -78.38538 19020 ft 253 kts 43°
2026-04-28 15:37 34.08502 -78.36969 19014 ft 253 kts 43°
2026-04-28 15:37 34.09690 -78.35406 19013 ft 253 kts 43°
2026-04-28 15:37 34.10878 -78.33842 19016 ft 253 kts 43°
2026-04-28 15:37 34.12068 -78.32276 19013 ft 254 kts 43°
2026-04-28 15:38 34.13260 -78.30704 19017 ft 253 kts 43°
2026-04-28 15:38 34.14450 -78.29136 19021 ft 254 kts 43°
2026-04-28 15:38 34.15644 -78.27563 19020 ft 254 kts 43°
2026-04-28 15:38 34.16838 -78.25987 19021 ft 254 kts 43°
2026-04-28 15:39 34.18029 -78.24414 19016 ft 254 kts 43°
2026-04-28 15:39 34.19219 -78.22844 19016 ft 253 kts 43°
2026-04-28 15:39 34.20408 -78.21274 19024 ft 253 kts 43°
2026-04-28 15:39 34.21582 -78.19720 19018 ft 254 kts 43°
2026-04-28 15:40 34.22776 -78.18143 19016 ft 254 kts 43°
2026-04-28 15:40 34.23972 -78.16563 19019 ft 254 kts 43°
2026-04-28 15:40 34.25162 -78.14988 19019 ft 254 kts 43°
2026-04-28 15:40 34.26352 -78.13409 19017 ft 254 kts 43°
2026-04-28 15:41 34.27539 -78.11837 19020 ft 253 kts 43°
2026-04-28 15:41 34.28724 -78.10271 19021 ft 254 kts 43°
2026-04-28 15:41 34.29921 -78.08685 19014 ft 254 kts 43°
2026-04-28 15:41 34.31105 -78.07112 19016 ft 254 kts 43°
2026-04-28 15:42 34.32299 -78.05527 19017 ft 253 kts 43°
2026-04-28 15:42 34.33486 -78.03952 19020 ft 253 kts 43°
2026-04-28 15:42 34.34672 -78.02377 19018 ft 253 kts 43°
2026-04-28 15:42 34.35857 -78.00803 19022 ft 253 kts 43°
2026-04-28 15:43 34.37025 -77.99251 19020 ft 253 kts 43°
2026-04-28 15:43 34.38227 -77.97651 19019 ft 253 kts 43°
2026-04-28 15:43 34.39408 -77.96079 19020 ft 253 kts 43°
2026-04-28 15:43 34.40579 -77.94521 19025 ft 253 kts 43°
2026-04-28 15:44 34.41764 -77.92943 19024 ft 253 kts 43°
2026-04-28 15:44 34.42948 -77.91364 19021 ft 253 kts 43°
2026-04-28 15:44 34.44133 -77.89787 19025 ft 253 kts 43°
2026-04-28 15:44 34.45318 -77.88205 19025 ft 253 kts 43°
2026-04-28 15:45 34.46500 -77.86630 19023 ft 254 kts 43°
2026-04-28 15:45 34.47691 -77.85040 19022 ft 255 kts 43°
2026-04-28 15:45 34.48882 -77.83448 19021 ft 254 kts 43°
2026-04-28 15:45 34.50072 -77.81861 19021 ft 254 kts 43°
2026-04-28 15:46 34.51260 -77.80274 19023 ft 255 kts 43°
2026-04-28 15:46 34.52449 -77.78680 19015 ft 254 kts 43°
2026-04-28 15:46 34.53634 -77.77094 19012 ft 254 kts 43°
2026-04-28 15:46 34.54820 -77.75508 19014 ft 253 kts 43°
2026-04-28 15:47 34.56006 -77.73918 19015 ft 254 kts 43°
2026-04-28 15:47 34.57197 -77.72324 19011 ft 255 kts 43°
2026-04-28 15:47 34.58386 -77.70735 19019 ft 254 kts 43°
2026-04-28 15:47 34.59570 -77.69145 19019 ft 254 kts 43°
2026-04-28 15:48 34.60753 -77.67556 19021 ft 253 kts 43°
2026-04-28 15:48 34.61935 -77.65970 19024 ft 253 kts 43°
2026-04-28 15:48 34.63117 -77.64383 19022 ft 253 kts 43°
2026-04-28 15:48 34.64299 -77.62797 19026 ft 253 kts 43°
2026-04-28 15:49 34.65467 -77.61226 19017 ft 254 kts 44°
2026-04-28 15:49 34.66652 -77.59631 19019 ft 255 kts 43°
2026-04-28 15:49 34.67842 -77.58035 19014 ft 255 kts 43°
2026-04-28 15:49 34.69030 -77.56435 19014 ft 255 kts 44°
2026-04-28 15:50 34.70217 -77.54835 19015 ft 255 kts 43°
2026-04-28 15:50 34.71401 -77.53240 19024 ft 255 kts 43°
2026-04-28 15:50 34.72595 -77.51629 19024 ft 255 kts 44°
2026-04-28 15:50 34.73782 -77.50028 19022 ft 255 kts 43°
2026-04-28 15:51 34.74970 -77.48425 19016 ft 255 kts 43°
2026-04-28 15:51 34.76164 -77.46823 19015 ft 255 kts 43°
2026-04-28 15:51 34.77348 -77.45220 19017 ft 254 kts 44°
2026-04-28 15:51 34.78534 -77.43618 19025 ft 255 kts 44°
2026-04-28 15:52 34.79703 -77.42036 19020 ft 255 kts 44°
2026-04-28 15:52 34.80909 -77.40406 19019 ft 257 kts 44°
2026-04-28 15:52 34.82102 -77.38790 19022 ft 257 kts 44°
2026-04-28 15:52 34.83301 -77.37170 19018 ft 257 kts 44°
2026-04-28 15:53 34.84490 -77.35552 19019 ft 258 kts 44°
2026-04-28 15:53 34.85676 -77.33951 19011 ft 257 kts 44°
2026-04-28 15:53 34.86876 -77.32331 19022 ft 258 kts 44°
2026-04-28 15:53 34.88078 -77.30697 19016 ft 259 kts 44°
2026-04-28 15:54 34.89281 -77.29060 19019 ft 260 kts 44°
2026-04-28 15:54 34.90487 -77.27429 19013 ft 257 kts 44°
2026-04-28 15:54 34.91683 -77.25805 19015 ft 257 kts 44°
2026-04-28 15:54 34.92874 -77.24185 19021 ft 257 kts 44°
2026-04-28 15:55 34.94067 -77.22563 19015 ft 256 kts 44°
2026-04-28 15:55 34.95255 -77.20951 19018 ft 256 kts 44°
2026-04-28 15:55 34.96443 -77.19336 19020 ft 256 kts 44°
2026-04-28 15:55 34.97626 -77.17721 19010 ft 255 kts 44°
2026-04-28 15:56 34.98808 -77.16111 19013 ft 254 kts 44°
2026-04-28 15:56 34.99990 -77.14505 19016 ft 254 kts 44°
2026-04-28 15:56 35.01167 -77.12901 19015 ft 253 kts 44°
2026-04-28 15:56 35.02339 -77.11302 19015 ft 253 kts 44°
2026-04-28 15:57 35.03514 -77.09699 19016 ft 253 kts 44°
2026-04-28 15:57 35.04671 -77.08119 19019 ft 253 kts 44°
2026-04-28 15:57 35.05848 -77.06513 19017 ft 254 kts 44°
2026-04-28 15:57 35.07026 -77.04903 18976 ft 254 kts 44°
2026-04-28 15:58 35.08174 -77.03250 18977 ft 256 kts 46°
2026-04-28 15:58 35.09328 -77.01612 18977 ft 254 kts 44°
2026-04-28 15:58 35.10492 -76.99982 18977 ft 254 kts 45°
2026-04-28 15:58 35.11640 -76.98343 18971 ft 254 kts 45°
2026-04-28 15:59 35.12784 -76.96702 18972 ft 253 kts 45°
2026-04-28 15:59 35.13929 -76.95065 18976 ft 253 kts 45°
2026-04-28 15:59 35.15079 -76.93422 18977 ft 254 kts 45°
2026-04-28 15:59 35.16225 -76.91783 18981 ft 254 kts 45°
2026-04-28 16:00 35.17363 -76.90154 18983 ft 254 kts 45°
2026-04-28 16:00 35.18509 -76.88513 18982 ft 253 kts 45°
2026-04-28 16:00 35.19655 -76.86870 18984 ft 253 kts 45°
2026-04-28 16:00 35.20796 -76.85236 19051 ft 254 kts 50°
2026-04-28 16:01 35.21947 -76.83583 18933 ft 255 kts 50°
2026-04-28 16:01 35.23105 -76.81922 18811 ft 256 kts 50°
2026-04-28 16:01 35.24264 -76.80260 18727 ft 255 kts 50°
2026-04-28 16:01 35.25406 -76.78620 18727 ft 252 kts 50°
2026-04-28 16:02 35.26539 -76.76992 18726 ft 249 kts 50°
2026-04-28 16:02 35.27661 -76.75380 18722 ft 248 kts 50°
2026-04-28 16:02 35.28777 -76.73775 18720 ft 247 kts 50°
2026-04-28 16:02 35.29888 -76.72177 18718 ft 246 kts 50°
2026-04-28 16:03 35.30980 -76.70603 18716 ft 245 kts 50°
2026-04-28 16:03 35.32092 -76.69004 18716 ft 245 kts 50°
2026-04-28 16:03 35.33198 -76.67410 18717 ft 245 kts 50°
2026-04-28 16:03 35.34301 -76.65820 18718 ft 245 kts 50°
2026-04-28 16:04 35.35290 -76.64130 18718 ft 244 kts 63°
2026-04-28 16:04 35.35981 -76.62234 18718 ft 244 kts 68°
2026-04-28 16:04 35.36642 -76.60332 18719 ft 244 kts 65°
2026-04-28 16:04 35.37395 -76.58460 18718 ft 243 kts 63°
2026-04-28 16:05 35.38162 -76.56636 18719 ft 243 kts 63°
2026-04-28 16:05 35.38921 -76.54784 18718 ft 243 kts 64°
2026-04-28 16:05 35.39672 -76.52929 18719 ft 243 kts 64°
2026-04-28 16:05 35.40427 -76.51068 18720 ft 243 kts 64°
2026-04-28 16:06 35.41181 -76.49213 18718 ft 243 kts 64°
2026-04-28 16:06 35.41936 -76.47355 18719 ft 243 kts 64°
2026-04-28 16:06 35.42690 -76.45496 18719 ft 243 kts 64°
2026-04-28 16:06 35.43444 -76.43638 18720 ft 243 kts 64°
2026-04-28 16:07 35.44197 -76.41781 18719 ft 244 kts 64°
2026-04-28 16:07 35.44951 -76.39918 18720 ft 244 kts 64°
2026-04-28 16:07 35.46472 -76.36164 18430 ft 255 kts 64°
2026-04-28 16:08 35.47268 -76.34191 18076 ft 264 kts 64°
2026-04-28 16:08 35.48096 -76.32140 17713 ft 270 kts 64°
2026-04-28 16:08 35.48936 -76.30062 17348 ft 273 kts 64°
2026-04-28 16:09 35.50634 -76.25855 16606 ft 275 kts 64°
2026-04-28 16:09 35.51480 -76.23757 16239 ft 275 kts 64°
2026-04-28 16:09 35.52329 -76.21650 15866 ft 274 kts 64°
2026-04-28 16:10 35.54012 -76.17467 15115 ft 272 kts 64°
2026-04-28 16:10 35.54849 -76.15386 14746 ft 271 kts 64°
2026-04-28 16:10 35.56510 -76.11257 14000 ft 268 kts 64°
2026-04-28 16:11 35.58136 -76.07203 13252 ft 265 kts 64°
2026-04-28 16:11 35.59751 -76.03175 12501 ft 261 kts 64°
2026-04-28 16:12 35.61346 -75.99190 11749 ft 257 kts 64°
2026-04-28 16:12 35.62134 -75.97221 11374 ft 256 kts 64°
2026-04-28 16:13 35.63689 -75.93330 10622 ft 252 kts 64°
2026-04-28 16:13 35.64458 -75.91402 10247 ft 250 kts 64°
2026-04-28 16:13 35.65973 -75.87606 9501 ft 247 kts 64°
2026-04-28 16:14 35.67475 -75.83834 8758 ft 244 kts 64°
2026-04-28 16:14 35.68952 -75.80125 8006 ft 241 kts 64°
2026-04-28 16:15 35.70415 -75.76444 7254 ft 239 kts 64°
2026-04-28 16:15 35.71144 -75.74609 6881 ft 238 kts 64°
2026-04-28 16:15 35.71869 -75.72783 6509 ft 237 kts 64°
2026-04-28 16:16 35.73302 -75.69166 5756 ft 233 kts 64°
2026-04-28 16:16 35.74011 -75.67379 5378 ft 231 kts 64°
2026-04-28 16:17 35.75413 -75.63838 4626 ft 228 kts 64°
2026-04-28 16:17 35.76098 -75.62109 4254 ft 227 kts 64°
2026-04-28 16:17 35.76796 -75.60343 3878 ft 226 kts 64°
2026-04-28 16:17 35.77475 -75.58627 3529 ft 226 kts 63°
2026-04-28 16:18 35.78160 -75.56876 3135 ft 225 kts 65°
2026-04-28 16:18 35.78825 -75.55183 2758 ft 213 kts 64°
2026-04-28 16:18 35.79464 -75.53584 2398 ft 207 kts 64°
2026-04-28 16:18 35.80057 -75.52025 2197 ft 191 kts 68°
2026-04-28 16:19 35.80784 -75.50753 2039 ft 183 kts 37°
2026-04-28 16:19 35.82002 -75.50296 1628 ft 188 kts 355°
2026-04-28 16:19 35.83121 -75.50921 1591 ft 172 kts 314°
2026-04-28 16:19 35.83760 -75.52112 1589 ft 163 kts 294°
2026-04-28 16:20 35.84352 -75.53284 1590 ft 161 kts 307°
2026-04-28 16:20 35.85062 -75.54362 1592 ft 164 kts 309°
2026-04-28 16:20 35.85803 -75.55462 1597 ft 169 kts 309°
2026-04-28 16:20 35.86563 -75.56588 1605 ft 172 kts 309°
2026-04-28 16:21 35.87331 -75.57727 1607 ft 176 kts 308°
2026-04-28 16:21 35.87846 -75.58501 1612 ft 175 kts 308°
2026-04-28 16:21 35.88618 -75.59658 1606 ft 175 kts 309°
2026-04-28 16:21 35.89395 -75.60808 1590 ft 174 kts 309°
2026-04-28 16:22 35.90161 -75.61944 1591 ft 171 kts 309°
2026-04-28 16:22 35.90915 -75.63064 1591 ft 169 kts 309°
2026-04-28 16:22 35.91664 -75.64176 1591 ft 168 kts 309°
2026-04-28 16:22 35.92421 -75.65268 1590 ft 168 kts 315°
2026-04-28 16:23 35.93428 -75.65980 1591 ft 169 kts 343°
2026-04-28 16:23 35.94579 -75.66242 1593 ft 169 kts 349°
2026-04-28 16:23 35.95742 -75.66496 1594 ft 169 kts 349°
2026-04-28 16:23 35.96880 -75.66745 1583 ft 158 kts 349°
2026-04-28 16:24 35.97946 -75.66910 1347 ft 154 kts 359°
2026-04-28 16:24 35.98964 -75.66762 1292 ft 143 kts 13°
2026-04-28 16:24 35.99916 -75.66387 1068 ft 141 kts 19°
2026-04-28 16:24 36.00794 -75.66032 982 ft 132 kts
2026-04-28 16:25 36.01737 -75.65988 721 ft 135 kts 357°
2026-04-28 16:25 36.02622 -75.66084 649 ft 121 kts 347°
2026-04-28 16:25 36.03028 -75.66438 602 ft 103 kts 283°
2026-04-28 16:25 36.02377 -75.66967 143 ft 101 kts 191°
2026-04-28 16:26 36.01789 -75.67149 18 ft 70 kts 195°
2026-04-28 16:26 36.01469 -75.67255 16 ft 17 kts 194°
2026-04-28 16:26 36.01376 -75.67282 15 ft 5 kts 165°
2026-04-28 16:26 36.01379 -75.67233 17 ft 8 kts 34°
2026-04-28 16:27 36.01445 -75.67202 17 ft 7 kts 70°
2026-04-28 16:27 36.01427 -75.67187 17 ft 4 kts 82°
2026-04-28 16:27 36.01441 -75.67180 17 ft 0 kts 14°